Hovedside
METAR-TAF:

METAR-TAF

Lufthavner :

Vidsel, Sverige

breddegrad: 65-52N, lengdegrad: 020-08E, høyde over havet: 180 m

Gjeldene værobservasjon

Denne rapporten ble laget for 39 minutter siden, klokken 21:20 UTC
Vind 3 kt fra Øst-sørøst
Temperatur 14°C
Luftfuktighet 94%
Trykk 1009 hPa
Sikt: 4900 m
dis

METAR: ESPE 182120Z AUTO 11003KT 4900 BR NCD 14/13 Q1009

Tid: 23:59 (21:59 UTC)


TAF: fraværende

Værobservasjoner og værvarsel for over 4000 flyplasser (METAR- og TAF-rapporter).

Tilgjengelige stasjoner er representert av de røde og gule prikkene på kartet.

Hold musepekeren over prikken for å se navnet på stasjonen.

Klikk så for å se værobservasjoner og -varsler.

For å forandre kartet kan du klikke på den grønne knappen med svart kryss for å zoome inn, på den grønne knappen med strek for å zoome ut, eller på de grønne pilene for å se tilstøtende kart.


METAR-TAF: